This is the latest recevied weather packets stored in our database for station/object CRYC. If no packets are shown the sender has not sent any weather packets the latest 10 day(s).
| Time | Temp. | Humidity | Pressure | Rain* | Wind** | Luminosity | Snow |
|---|---|---|---|---|---|---|---|
| 1777762677 | 14.44° C | - | - | 0 mm | 0 m/s | - | - |
| 1777762071 | 14.44° C | - | - | 0 mm | 0.45 m/s, 53° | - | - |
| 1777761463 | 15.56° C | - | - | 0 mm | 1.34 m/s, 346° | - | - |
| 1777760859 | 15.56° C | - | - | 0 mm | 1.79 m/s, 359° | - | - |
| 1777760255 | 17.22° C | - | - | 0 mm | 0 m/s | - | - |
| 1777759641 | 15.56° C | - | - | 0 mm | 0 m/s | - | - |
| 1777758433 | 16.11° C | - | - | 0 mm | 0.89 m/s, 343° | - | - |
| 1777757828 | 17.78° C | - | - | 0 mm | 0.89 m/s, 346° | - | - |
| 1777756621 | 18.33° C | - | - | 0 mm | 1.34 m/s, 32° | - | - |
| 1777756012 | 15.56° C | - | - | 0 mm | 1.34 m/s, 339° | - | - |
| 1777755407 | 17.78° C | - | - | 0 mm | 1.34 m/s, 336° | - | - |
| 1777754803 | 16.11° C | - | - | 0 mm | 0.89 m/s, 35° | - | - |
| 1777754201 | 16.67° C | - | - | 0 mm | 0 m/s | - | - |
| 1777752994 | 16.11° C | - | - | 0 mm | 0.45 m/s, 30° | - | - |
| 1777752388 | 16.11° C | - | - | 0 mm | 0.89 m/s, 300° | - | - |
| 1777751179 | 16.11° C | - | - | 0 mm | 1.79 m/s, 28° | - | - |
| 1777750576 | 16.67° C | - | - | 0 mm | 0.45 m/s, 63° | - | - |
| 1777749972 | 16.67° C | - | - | 0 mm | 1.79 m/s, 23° | - | - |
| 1777749369 | 17.78° C | - | - | 0 mm | 2.24 m/s, 13° | - | - |
| 1777748766 | 17.22° C | - | - | 0 mm | 1.34 m/s, 44° | - | - |
| 1777748163 | 17.22° C | - | - | 0 mm | 1.79 m/s, 39° | - | - |
| 1777747560 | 17.78° C | - | - | 0 mm | 0.89 m/s, 7° | - | - |
| 1777746949 | 16.67° C | - | - | 0 mm | 0.89 m/s, 17° | - | - |
| 1777746345 | 17.22° C | - | - | 0 mm | 2.24 m/s, 30° | - | - |
| 1777745742 | 16.67° C | - | - | 0 mm | 1.79 m/s, 73° | - | - |
* Rain latest hour (hover to see other rain measurements)
** Current wind speed in m/s (hover to see current wind gust speed)